Date String (YYYY-MM-DD hh:mm:ss) UTC,Instrument flags,Ambient pressure (hPa),Sample flow (lpm),Bypass flow (lpm),Sample temperature (°C),Ambient temperature (°C),ASC tube jacket temperature (°C),LED temperature (°C),Box temperature (°C),Sample RH (%),Span deviation,Mass concentration (μg/m³),Mass concentration (μg/m³),Mass concentration (μg/m³)
DateTimeUTC,F1_M11,P_M11,Q1_M11,Q2_M11,T1_M11,T2_M11,T3_M11,T4_M11,T5_M11,U1_M11,ZSPAN_M11,X0_M11,X2_M11,X1_M11
2022-03-14 14:00:00,,0828.2,5.01,0.00,23.4,22.6,00.0,32.4,25.1,10.2,0000.0,0006.65,0001.87,0000.90
2022-03-14 14:01:00,,0828.1,5.00,0.00,23.4,22.6,00.0,32.4,25.1,10.1,0000.0,0006.68,0001.86,0000.90
2022-03-14 14:02:00,,0828.2,5.00,0.00,23.4,22.6,00.0,32.4,25.1,09.9,0000.0,0006.68,0001.81,0000.90
2022-03-14 14:03:00,,0828.1,5.00,0.00,23.4,22.6,00.0,32.3,25.1,09.9,0000.0,0007.37,0001.78,0000.88
2022-03-14 14:04:00,,0828.1,5.00,0.00,23.4,22.6,00.0,32.3,25.1,10.0,0000.0,0007.52,0001.77,0000.87
2022-03-14 14:05:00,,0828.1,4.99,0.00,23.4,22.6,00.0,32.3,25.1,10.0,0000.0,0007.56,0001.72,0000.85
2022-03-14 14:06:00,,0828.3,5.00,0.00,23.3,22.6,00.0,32.3,25.1,10.2,0000.0,0007.81,0001.74,0000.86
2022-03-14 14:07:00,,0828.4,5.00,0.00,23.3,22.5,00.0,32.3,25.0,10.2,0000.0,0007.89,0001.75,0000.88
2022-03-14 14:08:00,,0828.3,5.00,0.00,23.3,22.5,00.0,32.3,25.0,10.2,0000.0,0007.64,0001.68,0000.89
2022-03-14 14:09:00,,0828.3,5.00,0.00,23.3,22.5,00.0,32.3,25.0,10.3,0000.0,0007.61,0001.66,0000.88
2022-03-14 14:10:00,,0828.3,5.00,0.00,23.3,22.5,00.0,32.3,25.0,10.3,0000.0,0007.79,0001.68,0000.88
2022-03-14 14:11:00,,0828.3,5.00,0.00,23.3,22.5,00.0,32.3,25.0,10.3,0000.0,0006.52,0001.70,0000.89
2022-03-14 14:12:00,,0828.3,5.00,0.00,23.2,22.5,00.0,32.3,24.9,10.4,0000.0,0006.41,0001.72,0000.91
2022-03-14 14:13:00,,0828.3,4.98,0.00,23.2,22.4,00.0,32.3,24.9,10.4,0000.0,0006.41,0001.74,0000.93
2022-03-14 14:14:00,,0828.4,5.01,0.00,23.2,22.4,00.0,32.3,24.9,10.5,0000.0,0005.56,0001.74,0000.96
2022-03-14 14:15:00,,0828.4,5.00,0.00,23.2,22.4,00.0,32.3,24.9,10.6,0000.0,0005.19,0001.73,0000.99
2022-03-14 14:16:00,,0828.4,5.00,0.00,23.2,22.4,00.0,32.2,24.9,10.6,0000.0,0004.89,0001.76,0001.02
2022-03-14 14:17:00,,0828.4,5.00,0.00,23.1,22.4,00.0,32.2,24.8,10.4,0000.0,0004.54,0001.79,0001.02
2022-03-14 14:18:00,,0828.5,5.01,0.00,23.1,22.4,00.0,32.2,24.8,10.6,0000.0,0004.43,0001.83,0001.03
2022-03-14 14:19:00,,0828.8,5.00,0.00,23.1,22.3,00.0,32.2,24.8,10.5,0000.0,0004.31,0001.85,0001.05
2022-03-14 14:20:00,,0829.0,4.99,0.00,23.1,22.3,00.0,32.2,24.9,10.7,0000.0,0004.06,0001.87,0001.08
2022-03-14 14:21:00,,0828.8,5.01,0.00,23.1,22.4,00.0,32.2,24.9,10.7,0000.0,0003.73,0001.93,0001.12
2022-03-14 14:22:00,,0828.6,5.00,0.00,23.1,22.4,00.0,32.2,25.0,10.7,0000.0,0003.87,0001.99,0001.14
2022-03-14 14:23:00,,0828.5,4.99,0.00,23.2,22.4,00.0,32.2,25.0,10.8,0000.0,0003.88,0001.99,0001.17
2022-03-14 14:24:00,,0828.6,4.99,0.00,23.2,22.5,00.0,32.2,25.0,10.9,0000.0,0003.65,0001.98,0001.20
2022-03-14 14:25:00,,0828.8,5.00,0.00,23.2,22.5,00.0,32.2,25.0,10.9,0000.0,0003.71,0002.03,0001.22
2022-03-14 14:26:00,,0828.8,5.00,0.00,23.2,22.5,00.0,32.2,25.1,11.1,0000.0,0003.64,0002.01,0001.25
2022-03-14 14:27:00,,0828.7,5.00,0.00,23.3,22.5,00.0,32.2,25.0,11.1,0000.0,0003.64,0002.02,0001.29
2022-03-14 14:28:00,,0828.7,5.01,0.00,23.3,22.6,00.0,32.2,25.1,11.0,0000.0,0003.64,0002.05,0001.32
2022-03-14 14:29:00,,0828.7,5.00,0.00,23.3,22.6,00.0,32.2,25.1,10.9,0000.0,0003.66,0002.05,0001.34
2022-03-14 14:30:00,,0828.7,5.00,0.00,23.3,22.6,00.0,32.2,25.1,10.9,0000.0,0003.82,0002.10,0001.36
2022-03-14 14:31:00,,0828.7,5.01,0.00,23.3,22.6,00.0,32.2,25.1,10.9,0000.0,0003.80,0002.15,0001.38
2022-03-14 14:32:00,,0829.1,4.98,0.00,23.3,22.6,00.0,32.2,25.1,10.9,0000.0,0003.73,0002.13,0001.40
2022-03-14 14:33:00,,0829.3,5.00,0.00,23.4,22.7,00.0,32.2,25.2,11.1,0000.0,0003.67,0002.11,0001.41
2022-03-14 14:34:00,,0828.9,5.00,0.00,23.4,22.7,00.0,32.2,25.2,11.0,0000.0,0003.59,0002.11,0001.41
2022-03-14 14:35:00,,0828.8,5.00,0.00,23.4,22.7,00.0,32.2,25.1,11.1,0000.0,0003.70,0002.12,0001.41
2022-03-14 14:36:00,,0828.8,5.00,0.00,23.4,22.6,00.0,32.3,25.1,11.1,0000.0,0003.82,0002.11,0001.42
2022-03-14 14:37:00,,0828.9,5.01,0.00,23.3,22.6,00.0,32.3,25.1,11.2,0000.0,0004.03,0002.18,0001.43
2022-03-14 14:38:00,,0828.9,5.00,0.00,23.3,22.6,00.0,32.3,25.0,10.9,0000.0,0004.26,0002.20,0001.42
2022-03-14 14:39:00,,0828.9,5.00,0.00,23.3,22.5,00.0,32.3,25.0,10.8,0000.0,0004.30,0002.20,0001.42
2022-03-14 14:40:00,,0828.9,5.00,0.00,23.2,22.5,00.0,32.3,24.9,11.1,0000.0,0004.19,0002.18,0001.43
2022-03-14 14:41:00,,0828.9,5.00,0.00,23.2,22.4,00.0,32.2,24.9,11.2,0000.0,0004.02,0002.16,0001.45
2022-03-14 14:42:00,,0828.9,5.00,0.00,23.2,22.4,00.0,32.2,24.8,11.3,0000.0,0004.51,0002.15,0001.46
2022-03-14 14:43:00,,0828.9,5.00,0.00,23.1,22.4,00.0,32.2,24.8,11.1,0000.0,0006.10,0002.17,0001.45
2022-03-14 14:44:00,,0829.0,5.00,0.00,23.1,22.3,00.0,32.2,24.8,11.2,0000.0,0006.30,0002.13,0001.45
2022-03-14 14:45:00,,0829.0,5.00,0.00,23.1,22.3,00.0,32.2,24.8,11.2,0000.0,0006.38,0002.14,0001.45
2022-03-14 14:46:00,,0829.0,5.00,0.00,23.1,22.3,00.0,32.2,24.7,11.1,0000.0,0007.05,0002.17,0001.45
2022-03-14 14:47:00,,0829.0,5.00,0.00,23.0,22.2,00.0,32.2,24.7,11.2,0000.0,0007.09,0002.18,0001.44
2022-03-14 14:48:00,,0829.1,5.00,0.00,23.0,22.2,00.0,32.1,24.7,11.4,0000.0,0007.23,0002.15,0001.44
2022-03-14 14:49:00,,0829.1,5.00,0.00,23.0,22.2,00.0,32.1,24.7,11.4,0000.0,0007.33,0002.19,0001.44
2022-03-14 14:50:00,,0829.1,5.00,0.00,23.0,22.2,00.0,32.1,24.7,11.3,0000.0,0007.64,0002.24,0001.45
2022-03-14 14:51:00,,0829.1,5.00,0.00,23.0,22.2,00.0,32.1,24.7,11.3,0000.0,0007.85,0002.25,0001.45
2022-03-14 14:52:00,,0829.1,5.00,0.00,23.0,22.2,00.0,32.1,24.7,11.3,0000.0,0008.19,0002.24,0001.44
2022-03-14 14:53:00,,0829.1,5.01,0.00,23.0,22.2,00.0,32.1,24.8,11.3,0000.0,0008.03,0002.26,0001.44
2022-03-14 14:54:00,,0829.2,4.99,0.00,23.0,22.3,00.0,32.1,24.8,11.5,0000.0,0007.15,0002.28,0001.46
2022-03-14 14:55:00,,0829.1,5.00,0.00,23.0,22.3,00.0,32.1,24.8,11.4,0000.0,0007.17,0002.39,0001.49
2022-03-14 14:56:00,,0829.1,5.01,0.00,23.0,22.3,00.0,32.1,24.9,11.4,0000.0,0007.56,0002.51,0001.53
2022-03-14 14:57:00,,0829.1,5.01,0.00,23.0,22.3,00.0,32.0,24.9,11.7,0000.0,0008.69,0002.59,0001.57
2022-03-14 14:58:00,,0829.1,4.99,0.00,23.0,22.3,00.0,32.0,24.8,11.5,0000.0,0008.71,0002.60,0001.61
2022-03-14 14:59:00,,0829.2,4.99,0.00,23.0,22.3,00.0,32.0,24.8,11.5,0000.0,0008.63,0002.65,0001.65
